[Date Prev][Date Next][Thread Prev][Thread Next] - [Date Index][Thread Index][Author Index]

2 Line ISS Keps 3-18



ISS
1 25544U 98067A   02077.19254321  .00059397  00000-0  78242-3 0  1994
2 25544  51.6385 150.0966 0003862 282.1235 116.9905 15.57848906189843


----
Via the sarex mailing list at AMSAT.ORG courtesy of AMSAT-NA.
To unsubscribe, send "unsubscribe sarex" to Majordomo@amsat.org



AMSAT Top AMSAT Home